Content
SEND FEEDBACK

Daily
Averages
Monthly
Summary
United States of America

WILLIAMSPORT, MARYLAND


Home > North America > United States > Maryland
Elevation: 11 meters     Latitude: 39 37N     Longitude: 077 51W

WEATHER
 
SELECT A DAY
Number of Records: 189,209;   Date Range: 1/1/95 - 9/30/14
 
SHARE

PRINT THIS DATA

[ ← Previous Day ]
WEATHER ALMANAC - 18 JUNE, 2014
[ Next Day → ]
[ °F ]   °C
Weather ElementAverageHighLow
Temperature28.3 °C32.2 °C (4:53 pm)23.3 °C (11:53 pm)
Dewpoint19.3 °C21.7 °C (8:53 pm)14.4 °C (3:53 am)
Humidity58.6 %82 % (11:53 pm)46 % (3:53 pm)
Barometer1016.3 hPa1017.9 hPa (11:53 am)1015.6 hPa (3:53 am)
Wind Speed10.5 km/h29.6 km/h (11:53 am)
Wind Gust37 km/h (11:53 am)
Weather ElementAverage
Visibility15.6 km
Wind DirectionSSW (200 °)

Weather ElementTotal
Precipitation1.78 mm
Cooling Degree Days9.4 (Base 18.3)
Growing Degree Days17.8 (Base 10)
Averaged from 24 records on 18 June, 2014
WEATHER CONDITIONS BREAKOUT
WIND DIRECTION BREAKOUT
WEATHER BY HOUR - 18 JUNE, 2014
[ °F ]   °C
Local TimeTemperatureDewpointHumidityBarometerVisibilityWind DirectionWind SpeedGust SpeedPrecipitationEventsConditions
1:53 AM27.8 °C16.7 °C51 %1016.6 hPa16.1 kmWSW (250°)13 km/hClear
2:53 AM26.1 °C16.7 °C56 %1016.9 hPa16.1 kmWNW (300°)9.3 km/hScattered Clouds
3:53 AM25.6 °C14.4 °C50 %1015.6 hPa16.1 kmCalmClear
4:53 AM25 °C16.7 °C60 %1015.6 hPa16.1 kmSW (230°)11.1 km/hClear
6:53 AM25 °C17.2 °C62 %1016.3 hPa16.1 kmSW (220°)14.8 km/hMostly Cloudy
7:53 AM25.6 °C18.3 °C64 %1015.9 hPa16.1 kmSSW (210°)11.1 km/hClear
8:53 AM26.7 °C18.9 °C62 %1016.3 hPa16.1 kmWSW (240°)9.3 km/hOvercast
9:53 AM27.2 °C19.4 °C62 %1016.6 hPa16.1 kmSW (220°)7.4 km/hMostly Cloudy
10:53 AM28.9 °C21.1 °C63 %1017.3 hPa16.1 kmWest (270°)13 km/hScattered Clouds
11:53 AM30 °C20.6 °C57 %1017.9 hPa16.1 kmNW (320°)29.6 km/h37 km/hScattered Clouds
12:53 PM30 °C20.6 °C57 %1017.6 hPa14.5 kmWNW (300°)22.2 km/hMostly Cloudy
1:53 PM30.6 °C20 °C53 %1016.9 hPa14.5 kmWNW (300°)18.5 km/hClear
2:53 PM31.1 °C19.4 °C49 %1016.9 hPa16.1 kmWest (270°)13 km/hClear
3:53 PM31.7 °C18.9 °C46 %1016.3 hPa16.1 kmWest (270°)16.7 km/hClear
4:53 PM32.2 °C19.4 °C46 %1016.3 hPa16.1 kmWest (270°)14.8 km/hClear
5:53 PM31.7 °C20 °C50 %1015.9 hPa16.1 kmWest (260°)16.7 km/hClear
6:53 PM31.1 °C20 °C51 %1015.6 hPa16.1 kmWSW (250°)11.1 km/hClear
7:53 PM30 °C21.1 °C59 %1015.9 hPa14.5 kmWest (270°)5.6 km/hClear
8:53 PM29.4 °C21.7 °C63 %1016.3 hPa12.9 kmCalmMostly Cloudy
9:53 PM28.9 °C21.7 °C65 %1016.3 hPa14.5 kmCalmMostly Cloudy
10:11 PM28.3 °C21.7 °C67 %1015.9 hPa12.9 kmCalmThunderstormThunderstorm
10:53 PM26.1 °C18.9 °C64 %1016.3 hPa16.1 kmSW (220°)5.6 km/h1.78 mmThunderstormMostly Cloudy
11:12 PM25.6 °C19.4 °C68 %1016.3 hPa16.1 kmCalmScattered Clouds
11:53 PM23.3 °C20 °C82 %1016.3 hPa16.1 kmSE (130°)7.4 km/hPartly Cloudy
Hourly data recorded from KHGR, located 0 kilometers away from Williamsport, Maryland







STORIES FROM OUR PARTNERS